Location: Franklinton
(36.1018°N, 78.4581°W)
Time: 11:32:00
(UTC-05:00)

OTV 5 (USA 277) - Visible Passes

Search period start: 19 February 2019 00:00
Search period end: 01 March 2019 00:00
Orbit: 342 x 346 km, 54.5° (Epoch: 17 February)

Date Brightness Start Highest point End Pass type
(mag) Time Alt. Az. Time Alt. Az. Time Alt. Az.
21 Feb ? 18:55:13 10° SSE 18:56:53 15° SE 18:56:53 15° SE visible
22 Feb ? 19:17:35 10° SW 19:20:25 64° SE 19:20:40 60° E visible
23 Feb ? 19:41:32 10° WSW 19:44:06 29° NW 19:44:19 29° NNW visible
24 Feb ? 18:30:02 10° SSW 18:32:51 60° SE 18:35:42 10° NE visible
24 Feb ? 20:07:08 10° NW 20:07:48 11° NW 20:07:48 11° NW visible
25 Feb ? 18:53:56 10° WSW 18:56:32 30° NW 18:59:09 10° NNE visible
26 Feb ? 19:19:24 10° NW 19:20:27 11° NNW 19:21:32 10° N visible
28 Feb ? 18:31:41 10° WNW 18:32:53 12° NNW 18:34:04 10° N visible
